DateTimeUTC,F1_A11,F1_S11,BsB_S11,BsG_S11,BsR_S11,BbsB_S11,BbsG_S11,BbsR_S11,BaB_A11,BaG_A11,BaR_A11,Tu_S11,T_S11,Uu_S11,U_S11,P_S11,T1_A11
2021-08-11T07:00:00Z,00040200,20000000,,,,,,,-000.20,-000.23,-000.45,18.4,24.9,12.9,08.6,0676.3,31.0
2021-08-11T07:01:00Z,00040200,20000000,,,,,,,-000.04,0000.25,0000.29,18.3,24.9,12.7,08.5,0676.3,31.0
2021-08-11T07:02:00Z,00040200,20000000,,,,,,,0000.01,-000.27,-000.04,18.3,24.9,12.7,08.5,0676.3,31.0
2021-08-11T07:03:00Z,00040200,60000000,,,,,,,-000.08,0000.20,-000.04,18.3,24.9,12.7,08.5,0676.3,31.0
2021-08-11T07:04:00Z,00040200,40000000,0000.41,0000.33,0000.11,0000.38,0000.02,-000.06,-000.10,-000.21,-000.21,18.4,24.7,12.6,08.6,0677.3,31.0
2021-08-11T07:05:00Z,00040200,00000000,0000.20,-000.13,0000.29,0000.38,0000.39,0000.04,-000.02,0000.10,0000.29,18.5,24.7,12.6,08.6,0677.3,31.0
2021-08-11T07:06:00Z,00040200,00000000,0000.20,0000.14,0000.01,0000.41,0000.05,-000.10,-000.23,-000.52,-000.29,18.5,24.7,12.6,08.6,0677.3,31.0
2021-08-11T07:07:00Z,00040200,00000000,0000.83,0000.43,0000.12,0000.15,0000.19,0000.09,-000.22,0000.20,0000.08,18.5,24.6,12.6,08.6,0677.3,31.0
2021-08-11T07:08:00Z,00040200,00000000,0000.26,0000.29,0000.51,0000.33,0000.29,0000.24,0000.28,0000.04,0000.00,18.5,24.6,12.6,08.6,0677.3,31.0
2021-08-11T07:09:00Z,00040200,00000000,0001.75,0000.72,0000.56,0000.60,-000.12,0000.17,-000.41,-000.69,-000.30,18.5,24.6,12.5,08.6,0677.3,31.0
2021-08-11T07:10:00Z,00040200,00000000,0000.64,0000.24,0000.54,0000.75,-000.07,0000.08,-000.32,0000.29,-000.13,18.5,24.6,12.5,08.6,0677.4,31.0
2021-08-11T07:11:00Z,00040200,00000000,0000.31,0000.19,0000.48,0000.57,0000.28,0000.19,0000.01,-000.54,-000.20,18.5,24.6,12.4,08.5,0677.4,31.0
2021-08-11T07:12:00Z,00040200,00000000,0000.55,0000.91,0000.34,0000.43,0000.23,0000.14,-000.17,-000.08,-000.28,18.5,24.6,12.4,08.5,0677.4,31.0
2021-08-11T07:13:00Z,00040200,00000000,0001.30,0000.65,0000.36,-000.41,0000.17,0000.22,-000.36,-000.25,-000.07,18.5,24.6,12.3,08.5,0677.4,31.0
2021-08-11T07:14:00Z,00040200,00000000,0000.37,0000.35,0000.23,0000.41,-000.01,0000.16,-000.07,0000.18,0000.28,18.5,24.6,12.2,08.4,0677.4,31.0
2021-08-11T07:15:00Z,00040200,00000000,0001.31,0000.28,0000.59,0000.19,0000.07,0000.02,-000.18,-000.48,-000.45,18.5,24.6,12.4,08.5,0677.4,31.0
2021-08-11T07:16:00Z,00040200,00000000,0000.70,0000.35,0000.57,0000.27,0000.26,0000.22,0000.09,0000.36,0000.71,18.5,24.6,12.3,08.5,0677.4,31.0
2021-08-11T07:17:00Z,00040200,00000000,0000.46,0000.38,0000.21,0000.53,0000.11,0000.09,-000.02,-000.10,-000.46,18.5,24.6,12.2,08.4,0677.4,31.0
2021-08-11T07:18:00Z,00040200,00000000,0001.08,0000.21,0000.48,0000.98,-000.36,-000.05,0000.11,-000.00,0000.06,18.5,24.6,12.2,08.4,0677.4,31.0
2021-08-11T07:19:00Z,00040200,00000000,0001.45,0000.17,0000.16,0000.75,0000.02,-000.10,-000.27,-000.40,-000.67,18.5,24.6,12.3,08.4,0677.3,31.0
2021-08-11T07:20:00Z,00040200,00000000,0000.49,0000.04,0000.19,0000.71,0000.24,0000.18,0000.14,0000.13,0000.91,18.4,24.6,12.2,08.4,0677.3,31.0
2021-08-11T07:21:00Z,00040200,00000000,0000.96,0000.04,0000.25,0000.53,0000.15,-000.11,-000.39,0000.06,-000.44,18.4,24.6,12.2,08.4,0677.3,31.0
2021-08-11T07:22:00Z,00040200,00000000,0000.62,0000.08,0000.24,-000.23,0000.25,0000.22,0000.11,0000.06,0000.30,18.4,24.6,12.2,08.4,0677.3,31.0
2021-08-11T07:23:00Z,00040200,00000000,0000.13,-000.01,0000.27,-000.12,0000.14,0000.03,-000.29,-000.24,-000.53,18.4,24.6,12.2,08.4,0677.3,31.0
2021-08-11T07:24:00Z,00040200,00000000,0000.76,0000.07,0000.26,0000.59,0000.12,0000.55,0000.14,-000.28,0000.24,18.4,24.5,12.0,08.3,0677.3,31.0
2021-08-11T07:25:00Z,00040200,00000000,0000.16,-000.10,0000.28,0000.86,0000.17,0000.26,-000.41,0000.14,0000.01,18.4,24.5,12.1,08.3,0677.3,31.0
2021-08-11T07:26:00Z,00040200,00000000,0000.45,0000.10,0000.18,0000.71,-000.21,-000.04,0000.26,0000.00,-000.11,18.4,24.5,12.1,08.3,0677.4,31.0
2021-08-11T07:27:00Z,00040200,00000000,0000.18,-000.13,0000.22,0000.45,0000.31,0000.19,-000.01,0000.12,-000.08,18.4,24.5,12.1,08.3,0677.4,31.0
2021-08-11T07:28:00Z,00040200,00000000,-000.74,-000.17,0000.18,0000.20,0000.15,-000.00,-000.22,-000.27,0000.09,18.4,24.5,12.2,08.3,0677.4,31.0
2021-08-11T07:29:00Z,00040200,00000000,0000.26,0000.24,0000.25,0000.73,-000.14,-000.27,0000.07,0000.14,-000.07,18.4,24.5,12.2,08.4,0677.4,31.0
2021-08-11T07:30:00Z,00040200,00000000,0000.80,0000.17,0000.16,0000.25,0000.07,-000.20,0000.31,-000.09,0000.24,18.4,24.5,12.3,08.4,0677.4,31.0
2021-08-11T07:31:00Z,00040200,00000000,0001.05,-000.21,-000.06,0000.72,0000.05,-000.33,-000.39,0000.48,-000.20,18.4,24.5,12.4,08.5,0677.4,31.0
2021-08-11T07:32:00Z,00040200,00000000,0000.45,-000.20,0000.40,0000.28,0000.23,0000.19,0000.40,-000.14,0000.34,18.4,24.5,12.4,08.5,0677.4,31.0
2021-08-11T07:33:00Z,00040200,00000000,0000.50,-000.13,0000.57,0000.52,-000.14,0000.21,-000.26,-000.20,0000.06,18.4,24.5,12.5,08.6,0677.4,31.0
2021-08-11T07:34:00Z,00040200,00000000,0001.14,-000.06,0000.09,0000.08,0000.24,0000.06,0000.72,0000.15,0000.15,18.4,24.5,12.4,08.6,0677.4,31.0
2021-08-11T07:35:00Z,00040200,00000000,0000.48,-000.36,-000.08,0000.61,-000.11,-000.12,-000.35,0000.09,-000.14,18.4,24.5,12.4,08.5,0677.4,31.0
2021-08-11T07:36:00Z,00040200,00000000,0000.54,-000.15,0000.08,0000.47,0000.15,-000.20,-000.16,-000.20,-000.39,18.4,24.5,12.3,08.4,0677.4,31.0
2021-08-11T07:37:00Z,00040200,00000000,0000.37,0000.30,-000.08,0000.59,0000.31,-000.19,-000.18,-000.06,-000.13,18.4,24.5,12.2,08.4,0677.4,31.0
2021-08-11T07:38:00Z,00040200,00000000,0000.63,0000.27,0000.27,-000.27,0000.34,0000.21,-000.06,-000.26,-000.01,18.5,24.5,12.2,08.4,0677.4,31.0
2021-08-11T07:39:00Z,00040200,00000000,0001.29,-000.03,0000.20,0000.47,0000.16,-000.13,-000.07,0000.16,-000.01,18.6,24.6,12.0,08.3,0677.4,31.0
2021-08-11T07:40:00Z,00040200,00000000,0000.53,0000.22,0000.08,0000.28,0000.34,0000.24,-000.25,-000.38,-000.10,18.6,24.6,12.0,08.3,0677.4,31.0
2021-08-11T07:41:00Z,00040200,00000000,0000.13,0000.05,0000.17,0000.30,0000.18,0000.06,-000.11,-000.23,-000.30,18.6,24.6,11.9,08.3,0677.4,31.0
2021-08-11T07:42:00Z,00040200,00000000,-000.08,-000.37,0000.25,0000.47,0000.05,-000.39,-000.13,-000.10,-000.15,18.6,24.7,11.9,08.2,0677.4,31.0
2021-08-11T07:43:00Z,00040200,00000000,0000.18,-000.18,0000.52,0000.85,-000.11,0000.65,0000.44,0000.19,0000.29,18.6,24.7,11.9,08.3,0677.3,31.0
2021-08-11T07:44:00Z,00040200,00000000,0000.00,-000.18,0000.48,0000.34,0000.10,0000.30,-000.53,-000.19,-000.19,18.6,24.7,11.9,08.2,0677.3,31.0
2021-08-11T07:45:00Z,00040200,00000000,0000.60,-000.14,0000.14,0000.89,-000.08,0000.09,-000.43,-000.30,-000.53,18.6,24.6,11.9,08.2,0677.3,31.0
2021-08-11T07:46:00Z,00040200,00000000,0000.92,-000.24,0000.44,0000.82,0000.10,0000.10,0000.39,0000.14,0000.51,18.6,24.6,11.9,08.2,0677.3,31.0
2021-08-11T07:47:00Z,00040200,00000000,0000.51,0000.06,0000.30,0000.98,-000.11,-000.02,0000.08,-000.16,-000.01,18.6,24.6,11.9,08.2,0677.3,31.0
2021-08-11T07:48:00Z,00040200,00000000,0000.21,-000.04,0000.18,0000.52,0000.08,-000.11,0000.11,0000.54,0000.08,18.6,24.6,11.8,08.2,0677.3,31.0
2021-08-11T07:49:00Z,00040200,00000000,0000.46,0000.32,0000.10,0000.32,0000.28,0000.11,0000.02,-000.29,0000.11,18.6,24.6,11.8,08.2,0677.3,31.0
2021-08-11T07:50:00Z,00040200,00000000,0000.28,0000.02,0000.35,-000.04,-000.06,0000.24,-000.05,0000.11,-000.02,18.6,24.6,11.8,08.2,0677.3,31.0
2021-08-11T07:51:00Z,00040200,00000000,0000.79,0000.01,0000.40,-000.10,0000.24,-000.05,-000.53,-000.46,-000.37,18.6,24.6,11.8,08.2,0677.3,31.0
2021-08-11T07:52:00Z,00040200,00000000,0001.40,-000.21,0000.22,0000.07,0000.14,-000.03,0000.03,0000.34,-000.18,18.6,24.6,11.8,08.2,0677.2,31.0
2021-08-11T07:53:00Z,00040200,00000000,0000.81,-000.30,0000.29,0000.22,-000.19,-000.03,-000.08,-000.19,0000.37,18.5,24.6,11.8,08.1,0677.2,31.0
2021-08-11T07:54:00Z,00040200,00000000,0001.28,0000.21,0000.33,0000.42,0000.07,0000.18,0000.42,0000.28,-000.14,18.5,24.6,11.8,08.2,0677.2,31.0
2021-08-11T07:55:00Z,00040200,00000000,0000.37,0000.31,0000.46,0000.42,0000.36,0000.46,-000.37,-000.28,0000.20,18.5,24.6,11.9,08.2,0677.1,31.0
2021-08-11T07:56:00Z,00040200,00000000,0000.75,0000.08,-000.03,0000.16,0000.04,0000.24,0000.17,0000.23,-000.04,18.5,24.5,12.0,08.3,0677.1,31.0
2021-08-11T07:57:00Z,00040200,40000000,,,,,,,0000.34,0000.10,0000.42,18.5,24.6,12.1,08.3,0677.0,31.0
2021-08-11T07:58:00Z,00040200,60000000,,,,,,,-000.30,-000.24,-000.13,18.3,24.7,12.0,08.1,0676.1,31.0
2021-08-11T07:59:00Z,00040200,20000000,,,,,,,0000.08,0000.23,-000.12,18.2,24.8,12.1,08.1,0676.1,31.0
